Regional Weather Roundup
Issued by NWS

Home | Current Version | Previous Version | Graphics & Text | Print | Product List | Glossary On
Versions: 1 2 3 4 5 6 7 8 9 10 11 12 13 14 15 16 17 18 19 20 21 22 23 24 25 26 27 28 29 30 31 32 33 34 35 36 37 38 39 40 41 42 43 44 45 46 47 48 49 50
000
ASUS43 KDMX 282308
RWRIA

WEATHER ROUNDUP FOR IOWA
NATIONAL WEATHER SERVICE DES MOINES IA
600 PM CDT THU JUL 28 2016

NOTE: "FAIR" INDICATES FEW OR NO CLOUDS BELOW 12,000 FEET WITH NO
SIGNIFICANT WEATHER AND/OR OBSTRUCTIONS TO VISIBILITY.

* - THESE STATIONS ARE NOT NWS STATIONS...THUS NOT UNDER NWS
QUALITY CONTROL.  THEY ALSO DO NOT REPORT WEATHER SUCH
AS PRECIPITATION OR FOG.

IAZ001>003-012>014-020>022-031>034-043>046-290000-
   NORTHWEST IOWA

CITY           SKY/WX    TMP DP  RH WIND       PRES   REMARKS
CARROLL *      MOSUNNY   77  63  61 N10G17    29.98S
CHEROKEE *     MOSUNNY   75  64  66 N7        30.00S
DENISON *      MOSUNNY   77  63  61 N10       29.97S
LE MARS *      CLOUDY    77  63  61 VRB7      30.02R
SHELDON *      PTSUNNY   75  63  64 N9        30.01S
SIOUX CITY     CLOUDY    81  59  47 N9        29.99S HX  81
SPENCER        MOSUNNY   74  62  66 N10       30.01S
STORM LAKE *   MOSUNNY   73  63  68 NE8       30.01S
$$

IAZ055>058-069>071-079>083-090>094-290000-
   SOUTHWEST IOWA

CITY           SKY/WX    TMP DP  RH WIND       PRES   REMARKS
ATLANTIC *     MOSUNNY   77  66  69 N9        29.98R
CLARINDA *       N/A     82  66  57 MISG      29.98R HX  85
COUNCIL BLFS * MOSUNNY   81  61  50 N7        29.98R HX  81
CRESTON *      PTSUNNY   79  68  69 NE10      29.97S HX  81
HARLAN  *      MOSUNNY   77  63  61 N10G18    30.01S
LAMONI         MOSUNNY   81  67  62 NE8       29.95S HX  83
RED OAK *      MOSUNNY   82  68  61 N9        29.96S HX  85
SHENANDOAH *   MOSUNNY   81  68  65 N5G13     29.97R HX  83
$$

IAZ047>049-059>061-072>074-084-290000-
   CENTRAL IOWA

CITY           SKY/WX    TMP DP  RH WIND       PRES   REMARKS
AMES           MOSUNNY   77  65  66 N14       29.96F
ANKENY *         N/A    N/A N/A N/A MISG        N/A
BOONE *        SUNNY     75  63  64 N14G21    29.97R
CHARITON *       N/A    N/A N/A N/A MISG        N/A
DES MOINES     PTSUNNY   80  61  52 N13       29.95S HX  81
GRINNELL*      MOSUNNY   77  64  65 N9        29.94F
KNOXVILLE *    MOSUNNY   77  63  61 NW13      29.93F
MARSHALLTOWN   MOSUNNY   77  65  66 N15       29.94F
NEWTON *       SUNNY     77  66  69 N12       29.94S
PELLA *        MOSUNNY   79  65  62 NW9       29.95R HX  81
PERRY *          N/A     77  65  65 N12G17    29.97S
$$

IAZ004>006-015-016-023>025-035-036-290000-
   NORTH CENTRAL IOWA

CITY           SKY/WX    TMP DP  RH WIND       PRES   REMARKS
ALGONA *       PTSUNNY   73  64  73 N10       30.00S
ESTHERVILLE    MOSUNNY   73  63  70 NE14      30.00F
FORT DODGE *   MOSUNNY   73  63  68 N8        30.00S
MASON CITY     PTSUNNY   74  65  73 N12       29.99S
FOREST CITY *  CLOUDY    72  61  68 N13G20    29.99S
IOWA FALLS *     N/A     77  66  68 N7        29.97S
$$

IAZ007>011-017>019-026>030-037>042-050>054-066-290000-
   NORTHEAST IOWA

CITY           SKY/WX    TMP DP  RH WIND       PRES   REMARKS
CEDAR RAPIDS   MOSUNNY   77  68  73 NW15      29.92R
CHARLES CITY * PTSUNNY   70  66  88 N13       29.98S
CLINTON *      MOSUNNY   82  71  69 NW8       29.89S HX  86
DECORAH *      CLOUDY    66  64  94 VRB7      29.97S
DUBUQUE        PTSUNNY   76  67  73 N9        29.92R
MONTICELLO *   PTSUNNY   77  68  73 NW9       29.91S
OELWEIN *      CLOUDY    72  66  83 N13       29.95S
WATERLOO       CLOUDY    75  65  70 NW16      29.93S
$$

IAZ064-065-067-068-078-290000-
   EAST CENTRAL IOWA

CITY           SKY/WX    TMP DP  RH WIND       PRES   REMARKS
DAVENPORT      SUNNY     81  67  62 NW12      29.90R HX  83
IOWA CITY      SUNNY     81  66  60 NW13      29.91F HX  83
MT. PLEASANT * SUNNY     83  66  56 NW10G16   29.92F HX  85
MUSCATINE *    MOSUNNY   82  66  57 NW12      29.90S HX  85
QUAD CITIES    MOSUNNY   84  66  54 W12       29.88S HX  86
$$

IAZ062-063-075>077-085>089-095>099-290000-
   SOUTHEAST IOWA

CITY           SKY/WX    TMP DP  RH WIND       PRES   REMARKS
BURLINGTON     PTSUNNY   80  68  66 NW9       29.91R HX  83
FAIRFIELD *    PTSUNNY   81  66  61 N9        29.92S HX  83
KEOKUK *       SUNNY     81  68  65 NW13      29.91S HX  83
OTTUMWA        SUNNY     77  65  66 NW12      29.92S
WASHINGTON *   SUNNY     79  66  65 NW8G14    29.92S HX  81
$$

ABBREVIATIONS USED IN REMARKS
   TC - TEMPERATURES IN CELSIUS
  WCI - WIND CHILL INDEX
   HX - HEAT INDEX
  VSB - VISIBILITY
$$




USA.gov is the U.S. government's official web portal to all federal, state and local government web resources and services.